Regional Weather Roundup
Issued by NWS Mt. Holly, NJ

Home | Current Version | Previous Version | Text Only | Print | Product List | Glossary On
Versions: 1 2 3 4 5 6 7 8 9 10 11 12 13 14 15 16 17 18 19 20 21 22 23 24 25 26 27 28 29 30 31 32 33 34 35 36 37 38 39 40 41 42 43 44 45 46 47 48 49 50
000
ASUS41 KPHI 222210
RWRPHI

REGIONAL WEATHER ROUNDUP
NATIONAL WEATHER SERVICE MOUNT HOLLY NJ
600 PM EDT TUE JUL 22 2014

NOTE:  "FAIR" INDICATES FEW OR NO CLOUDS BELOW 12,000 FEET WITH NO
SIGNIFICANT WEATHER AND/OR OBSTRUCTIONS TO VISIBILITY.

 * = STATION DOES NOT REPORT PRECIPITATION (E.G. RAIN, SNOW, ETC.)
        OR FOG.

NJZ015>026-222300-
SOUTHERN NEW JERSEY

CITY           SKY/WX    TMP DP  RH WIND       PRES   REMARKS
POMONA         SUNNY     79  61  53 S13       30.12S
RIO GRANDE*    MOSUNNY   79  63  57 SE12      30.15S
MILLVILLE      SUNNY     80  65  59 VRB6      30.11F
WRIGHTSTOWN    SUNNY     85  69  58 SW9       30.06S
MOUNT HOLLY    SUNNY     86  66  51 VRB5      30.07F
TRENTON        MOSUNNY   85  66  53 SW7       30.06F

$$
NJZ001>014-222300-
NORTHERN NEW JERSEY

CITY           SKY/WX    TMP DP  RH WIND       PRES   REMARKS
SUSSEX         SUNNY     86  68  54 SW7       30.07S
ANDOVER*         N/A     83  68  60 SW7       30.08F
MORRISTOWN     MOSUNNY   88  68  51 W10       30.06F HX  91
NEWARK         MOSUNNY   88  67  49 SW13      30.05F HX  91
TETERBORO      SUNNY     89  67  47 S9        30.04F HX  92
CALDWELL       SUNNY     86  66  51 VRB5      30.06F
SOMERVILLE     SUNNY     85  68  56 VRB3      30.04F
ALLAIRE*       SUNNY     81  66  61 S8G16     30.09S
TOMS RIVER*    SUNNY     82  64  54 S10G18    30.10S

$$
PAZ043-044-047-054-055-060>062-066>071-222300-
EASTERN PENNSYLVANIA

CITY           SKY/WX    TMP DP  RH WIND       PRES   REMARKS
PHILADELPHIA   MOSUNNY   86  63  45 S12       30.09S
NORTH PHILA    MOSUNNY   86  65  49 S9        30.08F
BLUE BELL      MOSUNNY   86  70  58 SW10      30.07F HX  90
DOYLESTOWN     MOSUNNY   83  68  60 VRB6      30.07F
QUAKERTOWN*    MOSUNNY   84  68  58 S7        30.09S
POTTSTOWN      MOSUNNY   84  68  58 S9        30.09F
LANCASTER      MOSUNNY   83  69  62 SW12      30.07F
COATESVILLE    SUNNY     81  68  65 S6        30.11F
READING        PTSUNNY   85  69  58 S9        30.06F
ALLENTOWN      PTSUNNY   86  68  54 S9        30.07F
MOUNT POCONO   MOSUNNY   80  65  59 SW12      30.14F
HAZLETON       MOSUNNY   79  68  69 S8        30.15S
WILKES BARRE   PTSUNNY   84  66  54 SW7       30.07F

$$
DEZALL-MDZ008-012-015-019-020-222300-
DELAWARE AND EASTERN MARYLAND

CITY           SKY/WX    TMP DP  RH WIND       PRES   REMARKS
WILMINGTON     SUNNY     82  66  58 S17       30.10F
DOVER          SUNNY     81  67  63 SE8       30.09F
GEORGETOWN     MOSUNNY   82  63  52 SE15G21   30.13S
PATUXENT       PTSUNNY   81  65  58 SE10      30.11F
OCEAN CITY     MOSUNNY   77  69  76 SE6       30.14F
WALLOPS ISLAND MOSUNNY   79  64  60 SE8       30.14F
CAMBRIDGE      SUNNY     84  63  48 S8        30.11F

$$
PAZ001-021-NYZ056-072-MDZ011-DCZ001-222300-
OTHER NEARBY LOCATIONS

CITY           SKY/WX    TMP DP  RH WIND       PRES   REMARKS
HARRISBURG     MOSUNNY   87  69  54 S9        30.06S HX  91
STATE COLLEGE  MOSUNNY   84  68  58 SW8       30.09S
WILLIAMSPORT   PTSUNNY   85  68  56 S9        30.04S
BINGHAMTON     SUNNY     82  66  58 SW9       30.08S
NEW YORK CITY  MOSUNNY   81  66  60 CALM      30.09S
BALTIMORE      PTSUNNY   83  65  54 S8        30.09F
WASHINGTON DC  CLOUDY    86  68  54 S12       30.09F

$$


USA.gov is the U.S. government's official web portal to all federal, state and local government web resources and services.